Tehachapi, CA

4:29 AM PDT on September 20, 2017 (GMT -0700)
Tehachapi Municipal

Weather History for KTSP - January, 2013

Change the Weather History Date:

Tuesday, January 15, 2013

  Actual Average Record
Temperature  
Mean Temperature 34 °F -  
Max Temperature 46 °F 53 °F 66 °F (2014)
Min Temperature 23 °F 31 °F 23 °F (2012)
Degree Days  
Heating Degree Days 30    
Moisture  
Dew Point 6 °F    
Average Humidity 30    
Maximum Humidity 43    
Minimum Humidity 22    
Precipitation  
Precipitation 0.00 in - - ()
Sea Level Pressure  
Sea Level Pressure 30.37 in    
Wind  
Wind Speed 11 mph (ESE)    
Max Wind Speed 22 mph    
Max Gust Speed 28 mph    
Visibility 10 miles    
Events      
Averages and records for this station are not official NWS values.
T = Trace of Precipitation, MM = Missing Value Source: NWS Daily Summary

Daily Weather History Graph

Daily Weather History Graph

Search for Another Location

Airport or City:

Trip Planner

Search our weather history database for the weather conditions in past years. The results will help you decide how hot, cold, wet, or windy it might be!

Date:

Astronomy

Jan. 15, 2013 Rise Set
Actual Time 7:01 AM PST 5:05 PM PST
Civil Twilight 6:33 AM PST 5:33 PM PST
Nautical Twilight 6:02 AM PST 6:04 PM PST
Astronomical Twilight 5:32 AM PST 6:34 PM PST
Moon 9:21 AM PST (1/15) 9:47 PM PST (1/15)
Length of Visible Light 10h 59m
Length of Day
10h 03m
Waxing Crescent, 20% of the Moon is Illuminated
Jan 15
Waxing Crescent
Jan 18
First Quarter
Jan 26
Full
Feb 3
Last Quarter
Feb 9
New

Hourly Weather History & Observations

Time (PST) Temp. Windchill Dew Point Humidity Pressure Visibility Wind Dir Wind Speed Gust Speed Precip Events Conditions
12:35 AM 26.6 °F 16.2 °F -0.4 °F 31% 30.30 in 10.0 mi East 11.5 mph - N/A   Clear
1:55 AM 26.6 °F 17.5 °F -0.4 °F 31% 30.33 in 10.0 mi East 9.2 mph - N/A   Clear
2:35 AM 26.6 °F 16.2 °F -0.4 °F 31% 30.33 in 10.0 mi East 11.5 mph - N/A   Clear
2:55 AM 26.6 °F 17.5 °F -0.4 °F 31% 30.33 in 10.0 mi East 9.2 mph - N/A   Clear
3:15 AM 24.8 °F 15.3 °F 1.4 °F 36% 30.33 in 10.0 mi East 9.2 mph - N/A   Clear
3:35 AM 26.6 °F 16.8 °F -0.4 °F 31% 30.33 in 10.0 mi East 10.4 mph - N/A   Clear
3:55 AM 28.4 °F 21.2 °F -0.4 °F 29% 30.33 in 10.0 mi ESE 6.9 mph - N/A   Clear
4:15 AM 23.0 °F 17.0 °F 3.2 °F 43% 30.33 in 10.0 mi ESE 4.6 mph - N/A   Clear
4:35 AM 28.4 °F 20.4 °F -0.4 °F 29% 30.33 in 10.0 mi ESE 8.1 mph - N/A   Clear
4:55 AM 23.0 °F 12.4 °F 3.2 °F 43% 30.33 in 10.0 mi ESE 10.4 mph - N/A   Clear
5:15 AM 24.8 °F 16.1 °F 1.4 °F 36% 30.34 in 10.0 mi ESE 8.1 mph - N/A   Clear
5:35 AM 28.4 °F 19.1 °F -0.4 °F 29% 30.35 in 10.0 mi East 10.4 mph - N/A   Clear
5:55 AM 28.4 °F 18.5 °F -0.4 °F 29% 30.35 in 10.0 mi East 11.5 mph - N/A   Clear
6:15 AM 28.4 °F 17.0 °F -0.4 °F 29% 30.36 in 10.0 mi East 15.0 mph 18.4 mph N/A   Clear
6:55 AM 28.4 °F 20.4 °F -0.4 °F 29% 30.37 in 10.0 mi East 8.1 mph - N/A   Clear
7:15 AM 28.4 °F 21.2 °F -0.4 °F 29% 30.38 in 10.0 mi East 6.9 mph - N/A   Clear
7:35 AM 30.2 °F 20.2 °F -0.4 °F 27% 30.38 in 10.0 mi East 12.7 mph - N/A   Clear
7:55 AM 32.0 °F 22.1 °F -0.4 °F 25% 30.38 in 10.0 mi East 13.8 mph - N/A   Clear
8:15 AM 32.0 °F 22.1 °F -0.4 °F 25% 30.40 in 10.0 mi East 13.8 mph - N/A   Clear
8:35 AM 32.0 °F 21.6 °F -0.4 °F 25% 30.41 in 10.0 mi East 15.0 mph - N/A   Clear
8:55 AM 33.8 °F 24.8 °F 1.4 °F 25% 30.41 in 10.0 mi ESE 12.7 mph 19.6 mph N/A   Clear
9:15 AM 35.6 °F 26.2 °F 1.4 °F 24% 30.41 in 9.0 mi ESE 15.0 mph 21.9 mph N/A   Clear
9:35 AM 37.4 °F 27.8 °F 3.2 °F 24% 30.42 in 10.0 mi ESE 17.3 mph 21.9 mph N/A   Clear
9:55 AM 37.4 °F 26.6 °F 3.2 °F 24% 30.42 in 8.0 mi ESE 21.9 mph 27.6 mph N/A   Clear
10:15 AM 39.2 °F 30.2 °F 5.0 °F 24% 30.41 in 10.0 mi ESE 17.3 mph 23.0 mph N/A   Clear
10:35 AM 39.2 °F 31.2 °F 5.0 °F 24% 30.41 in 10.0 mi ESE 13.8 mph 21.9 mph N/A   Clear
10:55 AM 39.2 °F 31.2 °F 6.8 °F 26% 30.39 in 10.0 mi ESE 13.8 mph - N/A   Clear
11:35 AM 41.0 °F 33.5 °F 8.6 °F 26% 30.37 in 9.0 mi ESE 13.8 mph - N/A   Clear
11:55 AM 44.6 °F 38.4 °F 8.6 °F 23% 30.36 in 10.0 mi East 12.7 mph 18.4 mph N/A   Clear
12:15 PM 44.6 °F 38.8 °F 8.6 °F 23% 30.36 in 10.0 mi East 11.5 mph - N/A   Clear
12:35 PM 44.6 °F 39.2 °F 8.6 °F 23% 30.36 in 10.0 mi ESE 10.4 mph 17.3 mph N/A   Clear
12:55 PM 44.6 °F 37.4 °F 8.6 °F 23% 30.35 in 10.0 mi SE 16.1 mph 19.6 mph N/A   Clear
1:15 PM 42.8 °F 36.6 °F 8.6 °F 25% 30.36 in 10.0 mi SE 11.5 mph 17.3 mph N/A   Clear
1:35 PM 44.6 °F 39.2 °F 8.6 °F 23% 30.35 in 10.0 mi ESE 10.4 mph 16.1 mph N/A   Clear
1:55 PM 44.6 °F 39.7 °F 8.6 °F 23% 30.35 in 10.0 mi East 9.2 mph - N/A   Clear
2:15 PM 44.6 °F 40.2 °F 8.6 °F 23% 30.35 in 10.0 mi ESE 8.1 mph - N/A   Clear
2:35 PM 46.4 °F 41.1 °F 8.6 °F 22% 30.35 in 10.0 mi ESE 11.5 mph - N/A   Clear
2:55 PM 46.4 °F 40.7 °F 8.6 °F 22% 30.35 in 10.0 mi ESE 12.7 mph - N/A   Clear
3:15 PM 44.6 °F 38.8 °F 8.6 °F 23% 30.35 in 10.0 mi East 11.5 mph - N/A   Clear
3:35 PM 42.8 °F 36.2 °F 6.8 °F 23% 30.36 in 10.0 mi SE 12.7 mph - N/A   Clear
3:55 PM 41.0 °F 35.2 °F 6.8 °F 24% 30.37 in 10.0 mi ESE 9.2 mph 16.1 mph N/A   Clear
4:15 PM 41.0 °F 35.2 °F 6.8 °F 24% 30.36 in 10.0 mi East 9.2 mph - N/A   Clear
4:35 PM 39.2 °F 33.6 °F 6.8 °F 26% 30.36 in 10.0 mi ESE 8.1 mph - N/A   Clear
4:55 PM 37.4 °F 31.4 °F 6.8 °F 28% 30.36 in 10.0 mi ESE 8.1 mph - N/A   Clear
5:15 PM 35.6 °F 27.5 °F 6.8 °F 30% 30.36 in 10.0 mi ESE 11.5 mph - N/A   Clear
5:35 PM 35.6 °F 27.1 °F 6.8 °F 30% 30.36 in 10.0 mi ESE 12.7 mph - N/A   Clear
5:55 PM 33.8 °F 24.3 °F 6.8 °F 32% 30.37 in 10.0 mi ESE 13.8 mph - N/A   Clear
6:15 PM 33.8 °F 25.3 °F 6.8 °F 32% 30.38 in 10.0 mi ESE 11.5 mph - N/A   Clear
6:35 PM 35.6 °F 26.6 °F 8.6 °F 33% 30.39 in 10.0 mi East 13.8 mph - N/A   Clear
6:55 PM 35.6 °F 27.1 °F 10.4 °F 35% 30.39 in 10.0 mi East 12.7 mph - N/A   Clear
7:15 PM 35.6 °F 26.2 °F 10.4 °F 35% 30.39 in 10.0 mi East 15.0 mph - N/A   Clear
7:35 PM 35.6 °F 27.1 °F 10.4 °F 35% 30.39 in 10.0 mi East 12.7 mph - N/A   Clear
7:55 PM 35.6 °F 27.1 °F 12.2 °F 38% 30.39 in 10.0 mi East 12.7 mph - N/A   Clear
8:15 PM 35.6 °F 27.1 °F 12.2 °F 38% 30.40 in 10.0 mi East 12.7 mph - N/A   Clear
8:55 PM 37.4 °F 29.8 °F 14.0 °F 38% 30.40 in 10.0 mi East 11.5 mph - N/A   Clear
9:15 PM 37.4 °F 29.3 °F 12.2 °F 36% 30.40 in 10.0 mi East 12.7 mph - N/A   Clear
9:35 PM 37.4 °F 28.9 °F 14.0 °F 38% 30.39 in 10.0 mi East 13.8 mph 17.3 mph N/A   Clear
9:55 PM 37.4 °F 28.9 °F 14.0 °F 38% 30.39 in 10.0 mi East 13.8 mph 20.7 mph N/A   Clear
10:15 PM 39.2 °F 29.8 °F 14.0 °F 36% 30.39 in 10.0 mi East 18.4 mph - N/A   Clear
10:35 PM 37.4 °F 28.2 °F 14.0 °F 38% 30.40 in 10.0 mi East 16.1 mph - N/A   Clear
10:55 PM 37.4 °F 28.5 °F 14.0 °F 38% 30.39 in 10.0 mi East 15.0 mph 20.7 mph N/A   Clear
11:15 PM 37.4 °F 29.3 °F 14.0 °F 38% 30.40 in 10.0 mi East 12.7 mph 20.7 mph N/A   Clear
11:35 PM 37.4 °F 29.3 °F 14.0 °F 38% 30.40 in 10.0 mi East 12.7 mph - N/A   Clear
11:55 PM 37.4 °F 29.8 °F 14.0 °F 38% 30.40 in 10.0 mi East 11.5 mph - N/A   Clear